Wind_Speed
14 10 3 2 5 5 9 5 3 8 8 6 13 5 4 2 2 2 10 18 21 21 21 20 17 17 20 19 15 12 10 8 6 8 10 12 12 13 13 13 12 12 12 11 10 10 9 9 9
13 9 3 3 6 8 8 4 8 7 7 12 11 7 5 2 3 4 16 22 23 22 22 22 19 18 19 19 16 14 11 8 6 7 10 11 12 12 13 12 12 11 11 11 11 11 11 11 10
11 7 3 3 5 10 6 6 6 2 12 9 8 4 4 3 6 11 16 26 24 22 19 22 20 19 19 19 16 15 14 8 5 8 10 11 11 12 12 12 12 13 14 14 14 15 14 13 12
6 2 2 5 10 9 7 3 5 10 5 7 5 5 3 7 6 14 25 28 23 20 20 21 19 16 19 20 18 17 16 9 4 7 10 11 11 11 11 12 13 15 15 14 13 13 13 12 11
4 2 5 6 12 6 7 7 8 12 6 9 9 5 3 6 10 19 29 27 25 20 20 21 17 16 20 22 19 19 17 9 4 7 9 10 11 11 12 13 14 14 13 12 11 10 10 9 8
4 2 6 11 14 6 8 7 8 13 9 6 6 7 5 9 15 24 28 26 25 21 21 20 17 18 22 23 20 22 17 10 5 8 10 10 11 12 14 14 13 12 10 9 8 8 8 8 8
8 6 9 11 11 8 8 6 11 14 12 9 2 7 4 14 18 26 26 24 25 21 22 20 18 20 22 22 23 22 15 9 6 9 11 11 12 13 14 13 12 10 8 7 6 5 6 7 8
5 5 10 10 12 14 3 4 5 15 12 4 8 6 5 20 23 26 24 22 26 24 22 22 22 20 22 23 22 19 13 9 9 12 12 12 13 14 13 12 10 8 6 4 3 3 5 8 11
6 8 12 17 15 11 4 5 3 5 7 8 10 4 6 23 28 29 26 23 28 27 23 24 25 24 24 23 21 17 14 12 13 14 13 13 15 15 13 11 8 6 4 2 2 4 6 9 13
13 13 20 12 15 10 6 6 6 5 9 9 9 14 9 26 32 34 31 29 31 31 26 26 25 25 23 22 20 18 16 15 16 15 14 15 16 14 12 10 8 5 2 1 3 5 7 10 12
8 17 17 16 15 10 6 6 5 9 8 17 18 17 19 30 32 30 29 27 32 31 31 28 26 24 23 22 20 19 18 18 17 16 16 16 16 14 12 10 6 3 1 3 5 7 9 11 13
13 14 19 21 15 9 10 6 6 12 21 12 11 17 22 33 35 35 30 29 32 34 33 31 27 25 23 21 19 18 18 19 18 17 16 16 16 14 11 8 6 4 2 3 7 10 12 12 11
17 17 17 20 23 24 25 21 19 15 19 19 15 12 26 31 31 30 27 25 27 31 35 33 29 26 23 21 20 20 20 19 19 17 17 17 16 14 11 10 8 4 2 3 6 10 12 12 12
10 14 15 19 24 23 19 23 22 18 20 17 18 18 25 30 32 30 30 28 30 32 36 34 31 27 24 21 20 20 20 19 18 16 17 17 15 14 12 9 6 3 4 6 7 10 11 11 11
14 18 19 21 16 15 19 27 28 21 19 12 16 18 23 27 29 33 31 30 31 31 35 36 31 28 25 22 21 22 21 19 15 15 15 15 12 11 10 6 5 5 5 7 10 12 10 10 9
8 13 17 13 23 19 13 26 21 29 23 22 19 18 22 28 34 29 27 28 28 29 34 34 33 29 24 23 24 24 22 19 17 14 14 15 13 12 10 8 6 7 8 10 12 12 9 8 7
11 15 17 15 18 15 24 23 17 22 20 24 23 21 23 24 29 34 31 32 29 29 31 33 33 29 26 24 24 25 23 19 17 16 13 11 11 11 11 9 9 10 12 13 11 9 7 6 3
10 14 17 20 14 9 24 26 21 21 29 28 24 23 23 26 33 35 34 34 30 29 28 30 34 31 29 26 28 25 21 19 18 17 15 13 10 12 12 12 13 15 14 12 10 7 3 1 1
18 19 21 18 13 13 14 15 14 21 26 29 32 26 25 28 24 27 29 32 32 29 29 31 35 32 33 30 29 27 24 22 20 19 18 16 14 15 16 17 16 14 11 9 4 0 2 6 7
18 18 19 16 19 21 21 26 18 16 19 27 29 30 27 24 27 32 31 32 35 34 31 32 35 34 34 29 29 27 26 23 23 22 22 20 20 19 18 17 15 11 7 5 7 7 10 13 10
18 19 18 13 15 21 16 25 23 18 28 29 34 32 30 30 31 33 32 37 36 36 35 35 37 34 33 32 29 29 26 26 25 26 25 23 21 20 18 15 11 8 8 8 10 13 9 5 3
16 16 17 18 11 10 8 20 25 22 23 26 34 38 33 28 29 33 33 33 40 40 36 36 37 35 34 32 33 30 29 30 30 29 27 25 22 18 14 10 9 7 6 8 4 1 2 2 1
11 13 15 16 15 13 16 11 15 19 25 24 25 40 40 32 33 36 38 40 40 40 40 38 36 37 34 34 34 33 34 33 32 31 28 24 20 15 12 9 5 6 2 3 3 3 4 3 2
10 9 12 15 13 13 20 15 21 17 24 24 24 35 36 32 33 31 36 40 42 44 41 39 38 38 36 35 37 40 36 36 36 32 26 22 19 14 12 7 5 5 6 5 5 4 4 4 3
11 8 4 6 7 12 16 16 25 17 25 27 25 32 34 31 35 40 41 42 44 43 42 39 38 36 37 37 39 37 39 40 36 32 25 16 14 12 9 9 9 8 7 5 5 4 4 4 4
8 6 5 8 9 12 9 6 8 3 12 22 26 37 47 45 43 41 38 42 45 41 44 41 39 38 39 40 41 41 41 34 27 20 21 20 15 14 12 9 9 8 7 5 5 4 3 4 4
3 6 4 6 15 11 10 11 10 4 5 11 21 29 35 40 42 46 41 41 42 48 43 39 39 39 40 40 39 35 26 26 28 28 22 17 16 13 11 11 9 8 7 6 5 4 3 4 5
5 3 5 4 6 12 9 8 9 11 16 14 16 25 27 33 33 45 47 39 45 45 39 36 38 38 36 32 30 28 26 29 30 26 22 20 15 13 13 11 10 8 6 5 4 3 4 5 6
3 4 4 4 7 5 7 4 2 9 13 16 10 17 26 31 35 40 44 49 46 41 33 37 33 32 29 25 24 28 32 30 26 25 21 17 17 15 13 11 8 6 5 3 3 3 5 6 7
3 9 5 5 4 5 2 3 5 9 12 12 5 3 20 30 35 41 43 43 40 36 37 33 31 28 28 32 32 33 32 27 25 20 18 17 16 15 12 9 7 5 3 2 3 4 5 7 8
Wind_Direction
348 336 285 269 235 240 230 213 275 161 167 148 151 183 201 15 203 355 151 167 164 166 163 160 159 167 167 166 167 167 164 140 94 107 116 116 116 116 115 111 106 100 92 84 79 79 82 82 79
346 342 285 250 247 226 214 219 213 175 133 148 153 142 179 149 160 157 156 161 162 164 161 161 162 165 167 169 167 168 167 145 101 112 122 120 120 119 116 111 105 100 96 91 87 85 85 83 79
341 337 260 249 239 235 244 207 212 149 147 165 155 192 165 167 181 166 166 161 163 164 162 162 162 164 171 174 171 170 173 148 106 121 131 129 124 116 114 109 107 106 103 99 93 86 85 84 79
347 307 207 245 235 248 257 352 201 164 207 206 198 165 168 182 178 175 164 164 161 163 166 165 166 175 181 179 175 174 178 163 118 134 140 132 124 122 119 119 117 113 107 98 89 82 78 74 69
331 238 242 242 249 260 256 268 212 202 195 195 201 168 161 191 178 171 165 165 166 163 166 167 169 171 175 177 173 178 180 172 149 148 149 144 137 133 131 125 121 117 109 101 91 80 72 63 53
211 224 233 241 239 253 262 244 212 221 218 187 206 168 147 176 169 167 168 169 169 167 167 168 166 163 168 173 174 178 184 179 172 166 156 148 145 143 139 134 129 123 115 101 88 78 66 50 32
231 212 237 244 258 272 247 202 210 216 214 214 222 185 169 178 172 170 171 171 173 173 173 167 164 166 169 173 175 180 184 195 188 176 166 160 156 150 144 138 132 127 119 108 92 69 49 24 4
228 235 216 227 236 253 250 207 267 216 218 218 186 207 196 188 173 172 170 172 177 179 178 174 169 166 167 170 177 184 196 202 192 179 170 164 160 155 151 147 144 136 129 115 86 44 20 1 351
206 229 231 224 214 225 185 202 195 234 228 201 203 213 225 183 174 173 173 177 182 184 182 184 181 177 177 181 186 195 200 200 189 181 174 170 167 162 161 159 153 148 138 104 15 359 357 353 350
216 230 235 234 226 226 205 244 228 192 217 235 218 221 207 182 181 180 181 183 187 186 185 188 189 190 191 193 195 199 200 196 189 184 180 175 171 168 168 172 171 167 161 348 347 349 347 349 350
222 241 241 242 231 221 235 244 223 227 221 231 230 207 192 184 187 188 189 192 190 189 191 189 192 196 198 200 199 202 199 194 187 187 182 177 175 175 177 178 181 185 223 327 338 355 354 352 353
249 242 252 244 239 237 231 243 231 239 245 223 240 212 204 191 196 196 194 193 190 194 195 194 194 197 201 202 203 203 198 192 188 187 184 181 182 185 186 183 193 213 254 336 344 349 350 351 352
249 253 254 252 252 252 259 251 258 251 258 251 258 226 215 205 202 200 198 197 194 197 198 198 197 197 200 201 202 198 196 192 191 190 189 189 191 192 192 197 208 220 282 324 328 333 340 342 342
304 286 276 259 254 252 253 252 244 246 262 247 248 230 209 208 207 198 197 198 200 199 202 198 199 199 201 204 202 196 193 192 191 192 194 194 195 198 203 210 229 236 279 304 313 310 321 323 326
280 277 276 254 257 248 259 255 242 246 246 240 236 221 209 205 206 210 206 199 199 201 202 199 199 202 203 203 200 196 194 193 195 195 196 194 189 197 198 215 236 254 287 303 308 304 301 306 304
274 268 256 248 244 242 225 257 241 236 241 244 237 222 212 209 214 208 208 201 201 199 202 200 199 203 204 203 197 195 196 196 197 194 197 190 195 200 213 229 252 263 280 280 284 288 285 294 299
241 256 249 248 244 242 222 258 248 236 231 239 239 223 217 211 210 211 206 205 200 202 201 199 200 204 204 200 195 195 197 195 198 200 198 203 208 217 230 243 258 264 267 269 277 290 301 315 312
256 257 253 251 261 279 253 250 251 251 232 234 238 230 219 215 216 209 208 211 205 206 203 200 199 203 202 200 200 198 197 201 204 208 213 222 227 219 233 251 251 255 260 271 274 282 312 9 257
275 273 271 274 281 302 279 286 294 262 238 236 237 230 223 221 214 208 206 205 203 204 202 198 196 199 200 200 197 196 200 203 210 211 219 223 226 230 239 240 248 251 260 268 253 227 331 313 295
260 264 270 288 265 269 277 276 261 268 273 254 238 231 222 219 207 206 204 201 203 203 201 197 199 200 200 205 201 203 206 211 214 218 220 222 226 232 237 240 245 245 237 227 255 255 279 288 283
248 249 260 251 294 282 283 273 265 249 252 251 252 243 228 214 206 204 202 202 201 203 201 199 200 202 200 204 206 207 210 213 213 215 217 220 222 229 231 234 227 225 249 260 265 278 277 258 244
269 253 255 256 268 262 237 267 254 244 247 237 236 238 233 217 209 209 210 202 199 204 203 203 204 204 206 210 210 214 216 217 217 217 215 214 216 218 212 197 226 242 255 279 284 202 182 178 246
255 264 261 257 248 287 272 265 264 246 245 247 232 226 225 220 206 204 214 209 201 203 204 205 206 207 209 211 214 216 220 222 222 217 210 206 200 185 188 211 229 256 175 143 161 153 116 113 94
271 288 272 257 249 253 260 248 272 248 249 240 234 220 219 210 203 204 213 207 202 203 205 207 208 209 211 216 218 219 222 223 218 205 193 184 175 194 190 198 166 145 149 142 119 108 101 95 84
250 269 279 235 219 256 255 253 247 251 240 232 218 208 210 207 191 200 205 205 204 203 205 208 211 212 214 218 221 224 223 220 212 199 177 180 179 179 168 130 149 146 127 113 102 94 83 77 62
207 214 252 291 245 272 196 247 252 255 292 277 262 215 201 197 198 203 203 202 200 205 206 207 210 213 215 219 222 222 220 209 182 175 175 167 174 163 127 151 151 140 130 124 119 96 72 61 45
135 209 257 266 259 273 256 246 283 328 320 313 281 247 204 187 191 196 194 202 195 202 201 206 210 213 217 219 215 211 199 187 178 164 166 159 150 133 164 161 149 142 138 128 106 81 61 48 30
225 345 271 211 248 234 231 240 243 337 316 312 323 232 192 181 180 188 192 198 205 195 198 209 209 205 207 206 204 192 177 169 164 154 154 145 141 164 161 153 150 142 129 116 98 69 45 33 24
213 248 218 259 244 257 270 238 46 295 292 284 302 209 164 163 173 181 181 189 190 191 200 205 203 200 192 184 167 159 158 159 154 145 140 150 160 160 157 150 147 138 129 111 82 48 34 20 11
286 275 238 259 334 250 306 284 20 320 305 260 105 101 143 154 165 176 179 182 183 186 187 198 190 185 173 160 155 161 153 152 146 139 147 158 163 152 150 148 145 142 140 107 53 21 11 10 4
Height
1539 1538 1538 1538 1538 1530 1524 1522 1517 1519 1523 1525 1527 1529 1528 1530 1528 1533 1534 1536 1540 1543 1546 1549 1552 1554 1556 1558 1561 1562 1562 1563 1563 1562 1562 1562 1562 1562 1562 1562 1562 1562 1562 1562 1562 1561 1560 1560 1559
1539 1538 1538 1537 1534 1532 1521 1518 1520 1517 1521 1525 1528 1528 1529 1528 1530 1531 1534 1536 1540 1543 1546 1548 1551 1554 1556 1559 1560 1562 1563 1563 1563 1563 1563 1563 1563 1564 1564 1564 1564 1564 1563 1563 1562 1562 1561 1561 1560
1539 1538 1539 1532 1530 1530 1525 1518 1516 1525 1525 1525 1526 1528 1529 1529 1529 1530 1531 1535 1539 1543 1546 1548 1551 1554 1556 1558 1561 1563 1563 1564 1564 1564 1564 1564 1565 1565 1565 1565 1565 1565 1565 1564 1564 1563 1563 1562 1562
1539 1539 1539 1532 1530 1525 1522 1519 1521 1525 1527 1527 1525 1525 1527 1526 1528 1529 1531 1535 1539 1543 1545 1548 1551 1553 1555 1558 1560 1562 1563 1564 1564 1564 1565 1565 1566 1566 1567 1567 1567 1567 1566 1566 1566 1566 1565 1564 1564
1538 1538 1532 1533 1528 1526 1522 1523 1523 1522 1522 1524 1525 1522 1526 1525 1527 1529 1531 1535 1538 1542 1545 1547 1550 1551 1554 1557 1560 1562 1563 1564 1565 1565 1565 1566 1566 1567 1567 1568 1568 1568 1568 1567 1567 1567 1566 1565 1565
1536 1537 1534 1531 1524 1524 1523 1521 1522 1521 1522 1524 1525 1524 1526 1525 1526 1529 1532 1535 1538 1542 1545 1547 1549 1551 1553 1556 1559 1561 1563 1564 1565 1565 1566 1566 1567 1568 1568 1568 1569 1569 1569 1569 1568 1568 1567 1566 1565
1533 1531 1529 1529 1527 1525 1520 1520 1520 1519 1519 1522 1523 1522 1526 1525 1526 1529 1533 1535 1539 1542 1544 1547 1549 1550 1553 1556 1558 1560 1562 1563 1565 1565 1566 1566 1567 1568 1569 1569 1570 1570 1570 1569 1569 1568 1568 1566 1565
1532 1529 1527 1524 1523 1522 1519 1521 1520 1519 1518 1520 1521 1519 1521 1522 1524 1529 1533 1536 1538 1541 1544 1546 1549 1551 1552 1554 1557 1560 1562 1563 1563 1564 1565 1566 1567 1569 1569 1570 1570 1570 1570 1570 1569 1568 1568 1567 1565
1530 1525 1519 1518 1520 1516 1518 1517 1518 1519 1520 1519 1518 1518 1519 1519 1523 1527 1531 1534 1535 1539 1543 1546 1548 1550 1552 1554 1556 1558 1560 1561 1563 1564 1565 1566 1567 1568 1569 1570 1570 1570 1570 1570 1569 1568 1567 1566 1564
1525 1518 1512 1513 1513 1512 1515 1516 1516 1517 1518 1519 1517 1516 1517 1517 1520 1522 1526 1528 1531 1535 1539 1543 1547 1549 1551 1553 1555 1556 1558 1559 1561 1563 1564 1565 1567 1568 1569 1570 1570 1570 1570 1569 1569 1568 1566 1566 1564
1518 1514 1513 1515 1514 1513 1513 1513 1514 1513 1514 1512 1513 1515 1513 1516 1517 1523 1525 1527 1528 1533 1536 1540 1544 1548 1550 1552 1554 1555 1556 1558 1560 1562 1563 1565 1566 1568 1569 1570 1570 1570 1570 1570 1569 1568 1566 1564 1563
1516 1515 1515 1515 1514 1513 1511 1511 1510 1510 1507 1507 1509 1512 1514 1513 1513 1516 1521 1522 1526 1528 1534 1537 1541 1545 1548 1550 1553 1554 1556 1557 1559 1560 1562 1564 1565 1566 1568 1569 1570 1570 1569 1569 1568 1567 1565 1564 1562
1513 1513 1512 1513 1511 1510 1510 1507 1507 1505 1505 1507 1506 1506 1508 1511 1512 1515 1520 1523 1526 1528 1530 1535 1538 1542 1545 1548 1550 1552 1554 1557 1558 1559 1561 1563 1564 1565 1567 1568 1568 1568 1568 1568 1567 1565 1564 1562 1562
1512 1512 1510 1508 1507 1507 1507 1502 1504 1502 1502 1502 1501 1502 1502 1507 1509 1512 1514 1518 1520 1524 1528 1532 1536 1539 1542 1546 1548 1551 1553 1555 1557 1558 1559 1561 1562 1564 1565 1565 1566 1566 1567 1566 1566 1564 1563 1561 1559
1514 1510 1504 1503 1506 1503 1504 1493 1490 1499 1499 1498 1498 1498 1499 1501 1506 1508 1508 1512 1515 1519 1523 1528 1534 1538 1540 1543 1546 1549 1551 1554 1556 1557 1559 1560 1562 1563 1564 1565 1566 1566 1565 1565 1564 1562 1560 1559 1558
1512 1506 1502 1495 1498 1499 1503 1475 1484 1492 1493 1492 1494 1496 1495 1496 1496 1505 1509 1510 1513 1515 1520 1525 1530 1535 1539 1541 1543 1546 1548 1551 1553 1556 1557 1558 1559 1560 1562 1563 1564 1564 1564 1562 1561 1559 1558 1557 1556
1507 1499 1491 1492 1492 1491 1490 1479 1483 1485 1487 1487 1488 1489 1491 1494 1494 1497 1502 1505 1508 1512 1516 1521 1527 1532 1536 1539 1541 1543 1545 1548 1551 1554 1555 1557 1559 1560 1561 1562 1562 1561 1560 1559 1558 1557 1557 1556 1556
1502 1499 1496 1495 1491 1489 1481 1473 1477 1480 1480 1480 1482 1484 1485 1488 1487 1491 1495 1502 1505 1510 1514 1518 1523 1528 1532 1535 1538 1541 1544 1547 1549 1551 1553 1555 1556 1557 1559 1559 1558 1558 1558 1557 1556 1555 1555 1555 1553
1506 1504 1501 1497 1494 1496 1487 1482 1478 1476 1476 1473 1472 1475 1477 1480 1486 1490 1493 1496 1501 1507 1509 1514 1517 1522 1527 1530 1534 1537 1540 1543 1546 1548 1550 1552 1553 1554 1555 1555 1555 1555 1555 1555 1554 1554 1553 1552 1551
1506 1506 1505 1504 1496 1492 1486 1474 1479 1480 1473 1469 1467 1468 1469 1475 1478 1480 1486 1491 1496 1501 1506 1510 1514 1517 1523 1528 1532 1535 1538 1539 1542 1545 1546 1548 1549 1550 1551 1551 1552 1551 1552 1553 1552 1551 1551 1551 1549
1500 1501 1501 1504 1500 1492 1487 1471 1469 1468 1469 1467 1463 1462 1462 1464 1469 1473 1480 1483 1489 1496 1500 1505 1509 1514 1519 1522 1528 1532 1534 1536 1537 1539 1541 1543 1544 1546 1546 1547 1548 1549 1549 1550 1550 1549 1546 1546 1548
1500 1495 1496 1497 1500 1490 1476 1451 1450 1448 1449 1451 1451 1452 1457 1460 1462 1465 1471 1480 1481 1489 1496 1500 1505 1509 1514 1519 1523 1526 1529 1530 1531 1533 1536 1538 1540 1541 1544 1545 1547 1547 1547 1548 1547 1547 1546 1545 1545
1496 1494 1493 1491 1491 1495 1483 1469 1434 1438 1435 1433 1435 1440 1447 1453 1455 1457 1463 1472 1475 1484 1490 1495 1500 1504 1509 1514 1519 1522 1523 1526 1527 1529 1531 1533 1535 1539 1541 1542 1545 1545 1545 1546 1546 1547 1545 1545 1545
1493 1492 1487 1485 1483 1482 1465 1468 1421 1430 1423 1423 1426 1431 1438 1443 1448 1451 1458 1464 1469 1477 1484 1490 1495 1499 1504 1509 1513 1515 1517 1520 1520 1522 1525 1530 1533 1535 1538 1539 1540 1544 1545 1547 1546 1546 1545 1544 1544
1493 1495 1487 1481 1482 1462 1441 1442 1419 1411 1411 1410 1415 1420 1428 1435 1438 1443 1449 1455 1464 1472 1479 1485 1490 1494 1498 1503 1506 1510 1512 1514 1515 1517 1523 1529 1532 1535 1537 1538 1542 1543 1544 1546 1546 1547 1546 1545 1544
1490 1492 1479 1464 1453 1438 1435 1436 1418 1413 1414 1413 1408 1406 1407 1417 1427 1434 1442 1449 1457 1463 1475 1479 1484 1488 1492 1497 1500 1502 1505 1508 1511 1517 1521 1524 1530 1534 1535 1540 1542 1542 1543 1544 1546 1545 1546 1546 1544
1487 1484 1476 1473 1459 1460 1428 1418 1411 1412 1410 1411 1405 1403 1403 1409 1415 1423 1436 1444 1447 1460 1468 1473 1478 1483 1487 1491 1493 1494 1498 1506 1506 1512 1521 1525 1530 1533 1538 1541 1542 1542 1542 1543 1545 1544 1546 1545 1544
1485 1486 1472 1467 1446 1435 1413 1415 1398 1416 1411 1410 1403 1395 1401 1404 1412 1416 1425 1433 1447 1453 1459 1466 1472 1473 1480 1484 1489 1492 1499 1504 1510 1511 1520 1523 1529 1536 1539 1541 1542 1542 1542 1543 1544 1545 1544 1544 1543
1482 1474 1474 1470 1447 1423 1413 1400 1428 1423 1416 1412 1404 1398 1400 1401 1408 1413 1418 1432 1442 1450 1450 1464 1468 1470 1475 1482 1486 1490 1502 1509 1512 1512 1519 1526 1532 1536 1539 1540 1541 1542 1543 1543 1544 1544 1543 1542 1542
1480 1474 1470 1459 1433 1432 1426 1409 1422 1422 1416 1408 1402 1403 1399 1401 1407 1413 1422 1431 1438 1444 1447 1459 1465 1470 1475 1479 1488 1500 1501 1509 1512 1518 1524 1529 1534 1536 1538 1540 1541 1543 1544 1543 1543 1544 1542 1541 1541